Regional Weather Roundup
Issued by NWS Kansas City/Pleasant Hill, MO

Home | Current Version | Previous Version | Text Only | Print | Product List | Glossary On
Versions: 1 2 3 4 5 6 7 8 9 10 11 12 13 14 15 16 17 18 19 20 21 22 23 24 25 26 27
000
ASUS43 KEAX 132310
RWREAX

WEATHER ROUNDUP FOR EASTERN KANSAS AND NORTHWEST MISSOURI
NATIONAL WEATHER SERVICE KANSAS CITY/PLEASANT HILL MO
500 PM CST WED DEC 13 2017

KSZ040-057-103>105-MOZ028-029-037-043-140000-
...KANSAS CITY METROPOLITAN AREA...

CITY           SKY/WX    TMP DP  RH WIND       PRES   REMARKS
K.C. INTL      PTCLDY    51  28  41 NW10G20   29.79R
K.C. DOWNTOWN  CLEAR     55  27  34 NW13      29.79R
LEES SUMMIT    CLEAR     54  27  35 NW17      29.80R
OLATHE - IXD   CLEAR     52  26  36 NW15      29.81R
OLATHE - OJC   CLEAR     53  26  35 NW14G26   29.80R
LAWRENCE       CLEAR     53  27  36 NW17      29.82R

$$

MOZ001>008-011>017-020>025-030>033-038>040-044>046-053-054-140000-
...NORTHERN AND CENTRAL MISSOURI...

CITY           SKY/WX    TMP DP  RH WIND       PRES   REMARKS
ST. JOSEPH     CLEAR     50  30  46 NW15G29   29.81R
MOSBY          CLEAR     52  27  37 NW14      29.79R
WARRENSBURG    CLEAR     52  27  37 W8        29.78R
WHITEMAN AFB   CLEAR     53  26  34 NW12      29.73R
CLINTON        CLEAR     54  27  35 NW9G20    29.78R
SEDALIA        CLEAR     53  28  38 NW9       29.76R
WARSAW         NOT AVBL
CHILLICOTHE      N/A     49  28  44 NW13G21   29.77R
KIRKSVILLE     PTCLDY    43  34  70 NW15G23   29.74R

$$

MOZ041-047>049-056>058-063>065-088>090-097-140000-
...EASTERN AND SOUTHERN MISSOURI...

CITY           SKY/WX    TMP DP  RH WIND       PRES   REMARKS
ST. LOUIS INTL PTCLDY    52  34  50 NW12      29.64R
SPIRIT OF STL  PTCLDY    55  30  38 NW23G35   29.65R
COLUMBIA       CLEAR     53  28  38 NW15G21   29.71R
JEFFERSON CITY CLEAR     55  28  35 NW14      29.71R
ROLLA          CLEAR     53  30  41 NW12G24   29.70R
OSAGE BEACH    CLEAR     55  30  38 NW10G16   29.74R
SPRINGFIELD    CLEAR     55  27  34 W9        29.77S
BRANSON        CLEAR     55  25  30 NW7       29.81R
JOPLIN         CLEAR     56  28  34 W8        29.82R
WEST PLAINS    CLEAR     54  25  32 W12G21    29.75R

$$

IAZ060-094-KSZ022-034>040-054-083-096-NEZ052-066-093-140000-
...KANSAS...SOUTHEAST NEBRASKA AND IOWA...

CITY           SKY/WX    TMP DP  RH WIND       PRES   REMARKS
TOPEKA         CLEAR     54  28  36 NW15G23   29.83R
MANHATTAN      CLEAR     55  25  31 N8        29.87R
EMPORIA        CLEAR     54  24  31 NW13      29.85R
CHANUTE        CLEAR     58  25  28 NW12      29.84R
WICHITA        PTCLDY    59  23  25 NW10      29.88R
OMAHA          MOCLDY    43  28  55 N23G30    29.86R WCI  34
LINCOLN        CLEAR     48  28  46 NW14      29.88R
FALLS CITY     CLEAR     49  27  42 NW13G24   29.82R
LAMONI         CLOUDY    44  29  55 NW18G30   29.77R
DES MOINES     CLOUDY    37  27  67 NW25G38   29.77R WCI  25

$$





USA.gov is the U.S. government's official web portal to all federal, state and local government web resources and services.